Weather History for LTAU - January, 2013

Change the Weather History Date:

Sunday, January 13, 2013

  Actual Average Record
Temperature  
Mean Temperature 33 °F -  
Max Temperature 36 °F 40 °F 53 °F (2003)
Min Temperature 30 °F 21 °F -11 °F (2008)
Degree Days  
Heating Degree Days 32    
Moisture  
Dew Point 32 °F    
Average Humidity 90    
Maximum Humidity 100    
Minimum Humidity 75    
Precipitation  
Precipitation 0.04 in - - ()
Sea Level Pressure  
Sea Level Pressure 30.14 in    
Wind  
Wind Speed 3 mph ()    
Max Wind Speed 9 mph    
Max Gust Speed -    
Visibility 3.2 miles    
Events Fog , Rain , Snow    
Averages and records for this station are not official NWS values.
T = Trace of Precipitation, MM = Missing Value Source: Averaged Metar Reports

Daily Weather History Graph

Daily Weather History Graph

Search for Another Location

Airport or City:

Trip Planner

Search our weather history database for the weather conditions in past years. The results will help you decide how hot, cold, wet, or windy it might be!

Date:

Astronomy

Jan. 13, 2013 Rise Set
Actual Time 6:55 AM EET 4:38 PM EET
Civil Twilight 6:26 AM EET 5:07 PM EET
Nautical Twilight 5:53 AM EET 5:40 PM EET
Astronomical Twilight 5:21 AM EET 6:12 PM EET
Moon 7:42 AM EET (1/13) 6:51 PM EET (1/13)
Length of Visible Light 10h 41m
Length of Day
9h 42m
Waxing Crescent, 4% of the Moon is Illuminated
Jan 13
Waxing Crescent
Jan 19
First Quarter
Jan 27
Full
Feb 3
Last Quarter
Feb 10
New

Hourly Weather History & Observations

Time (EET) Temp. Windchill Dew Point Humidity Pressure Visibility Wind Dir Wind Speed Gust Speed Precip Events Conditions
12:20 AM 33.8 °F 26.4 °F 30.2 °F 87% 30.06 in 5.0 mi WSW 9.2 mph - N/A   Mostly Cloudy
12:50 AM 35.6 °F - 30.2 °F 81% 30.06 in 5.0 mi Calm Calm - N/A   Mostly Cloudy
1:20 AM 35.6 °F - 30.2 °F 81% 30.06 in 5.0 mi Variable 2.3 mph - N/A   Mostly Cloudy
1:50 AM 35.6 °F 32.8 °F 30.2 °F 81% 30.09 in 6.2 mi West 3.5 mph - N/A   Mostly Cloudy
2:00 AM 35 °F - 30 °F 77%  in 12 mi West 3.5 mph - -   Partly Cloudy
2:20 AM 37.4 °F 31.4 °F 30.2 °F 75% 30.06 in 6.2 mi NE 8.1 mph - N/A   Mostly Cloudy
2:50 AM 35.6 °F 31.7 °F 30.2 °F 81% 30.09 in 5.0 mi North 4.6 mph - N/A Snow Light Snow
3:20 AM 35.6 °F 30.7 °F 30.2 °F 81% 30.06 in 5.6 mi East 5.8 mph - N/A Snow Light Snow
3:50 AM 35.6 °F 31.7 °F 32.0 °F 87% 30.06 in 5.0 mi NE 4.6 mph - N/A Rain , Snow Light Rain
4:20 AM 33.8 °F 30.8 °F 32.0 °F 93% 30.06 in 6.2 mi North 3.5 mph - N/A   Mostly Cloudy
4:50 AM 33.8 °F 28.6 °F 32.0 °F 93% 30.06 in 6.2 mi NW 5.8 mph - N/A   Mostly Cloudy
5:20 AM 33.8 °F - 32.0 °F 93% 30.09 in 5.6 mi Calm Calm - N/A Snow Light Snow
5:50 AM 33.8 °F - 32.0 °F 93% 30.09 in 5.0 mi Calm Calm - N/A Snow Light Snow
6:20 AM 33.8 °F - 32.0 °F 93% 30.09 in 5.0 mi Calm Calm - N/A Snow Light Snow
6:50 AM 33.8 °F - 32.0 °F 93% 30.12 in 2.8 mi Calm Calm - N/A Snow Light Snow
7:20 AM 33.8 °F 29.6 °F 32.0 °F 93% 30.12 in 2.8 mi West 4.6 mph - N/A Snow Light Snow
7:50 AM 33.8 °F - 32.0 °F 93% 30.12 in 2.5 mi Variable 1.2 mph - N/A Snow Light Snow
8:00 AM 33 °F - 31 °F 92%  in 2 mi NW 1.2 mph - - Snow Light Snow
8:20 AM 33.8 °F - 32.0 °F 93% 30.12 in 1.4 mi Calm Calm - N/A Snow Light Snow
8:50 AM 33.8 °F - 32.0 °F 93% 30.15 in 1.4 mi Calm Calm - N/A Rain Rain
9:20 AM 33.8 °F 29.6 °F 32.0 °F 93% 30.15 in 1.4 mi West 4.6 mph - N/A   Overcast
9:50 AM 33.8 °F - 32.0 °F 93% 30.15 in - Variable 2.3 mph - N/A   Overcast
10:20 AM 35.6 °F - 32.0 °F 87% 30.15 in 2.8 mi Variable 2.3 mph - N/A   Overcast
10:50 AM 35.6 °F 29.2 °F 32.0 °F 87% 30.15 in 5.0 mi West 8.1 mph - N/A   Overcast
11:20 AM 35.6 °F 30.7 °F 32.0 °F 87% 30.15 in 6.2 mi West 5.8 mph - N/A   Overcast
11:50 AM 35.6 °F 30.7 °F 32.0 °F 87% 30.12 in 5.6 mi West 5.8 mph - N/A   Overcast
12:20 PM 35.6 °F - 32.0 °F 87% 30.12 in 5.0 mi WSW 2.3 mph - N/A   Overcast
12:50 PM 35.6 °F - 32.0 °F 87% 30.12 in 3.7 mi West 2.3 mph - N/A   Overcast
1:20 PM 35.6 °F - 32.0 °F 87% 30.12 in 3.7 mi WSW 1.2 mph - N/A   Overcast
1:50 PM 35.6 °F - 32.0 °F 87% 30.15 in 3.7 mi Variable 2.3 mph - N/A   Overcast
2:00 PM 36 °F - 32 °F 81%  in 4 mi West 2.3 mph - -   Mist
2:20 PM 35.6 °F - 32.0 °F 87% 30.15 in 2.2 mi West 2.3 mph - N/A   Overcast
2:50 PM 35.6 °F - 32.0 °F 87% 30.15 in - Calm Calm - N/A Rain , Snow Light Rain
3:20 PM 35.6 °F - 32.0 °F 87% 30.18 in 1.7 mi Calm Calm - N/A Rain , Snow Light Rain
3:50 PM 35.6 °F - 32.0 °F 87% 30.18 in 1.4 mi Calm Calm - N/A   Mostly Cloudy
4:20 PM 35.6 °F - 32.0 °F 87% 30.18 in 1.0 mi Calm Calm - N/A Rain , Snow Light Rain
4:50 PM 33.8 °F - 32.0 °F 93% 30.18 in 1.2 mi Calm Calm - N/A Rain , Snow Light Rain
5:20 PM 33.8 °F - 32.0 °F 93% 30.18 in 1.3 mi Calm Calm - N/A Rain , Snow Light Rain
5:50 PM 33.8 °F - 32.0 °F 93% 30.18 in 1.1 mi Calm Calm - N/A Rain , Snow Light Rain
6:20 PM 33.8 °F - 32.0 °F 93% 30.18 in 1.1 mi Calm Calm - N/A Rain , Snow Light Rain
6:50 PM 33.8 °F 28.6 °F 32.0 °F 93% 30.21 in 1.2 mi NNW 5.8 mph - N/A Rain , Snow Light Rain
7:20 PM 33.8 °F - 32.0 °F 93% 30.21 in 1.5 mi Calm Calm - N/A Rain , Snow Light Rain
7:50 PM 33.8 °F - 32.0 °F 93% 30.21 in 1.2 mi Calm Calm - N/A Rain , Snow Light Rain
8:00 PM 33 °F - 32 °F 93%  in 1 mi Calm Calm - - Snow Light Snow
8:20 PM 33.8 °F - 32.0 °F 93% 30.21 in 1.3 mi Calm Calm - N/A   Overcast
8:50 PM 33.8 °F - 32.0 °F 93% 30.21 in 1.4 mi Calm Calm - N/A   Mostly Cloudy
9:20 PM 32.0 °F - 30.2 °F 93% 30.21 in 1.1 mi Calm Calm - N/A   Mostly Cloudy
9:50 PM 32.0 °F - 30.2 °F 93% 30.21 in 1.0 mi Calm Calm - N/A   Mostly Cloudy
10:20 PM 32.0 °F - 32.0 °F 100% 30.24 in 0.8 mi Calm Calm - N/A Fog Patches of Fog
10:50 PM 32.0 °F - 32.0 °F 100% 30.21 in 1.1 mi Calm Calm - N/A   Mostly Cloudy
11:20 PM 30.2 °F - 30.2 °F 100% 30.24 in 0.3 mi Calm Calm - N/A Fog Light Freezing Fog
11:50 PM 30.2 °F - 28.4 °F 93% 30.24 in 0.1 mi Calm Calm - N/A Fog Light Freezing Fog